Starlink 32327

operational
NORAD ID: 61641 Int'l Des: 2024-191 Owner: SPXS Country: US Constellation: starlink
LEOCIRCULAR

Über Starlink 32327

Beschreibung wird geladen...

Live-Position

3D-Globus wird geladen...

Nächste Überflüge

Höhenverlauf

Altitude vs Time

uPlot chart will show altitude changes over time

Zweizeiliger Elementsatz

1 61641U 24191W 25259.14187240 .00001222 00000-0 53933-4 0 9999
2 61641 43.0007 60.0687 0001948 282.3765 77.6869 15.27583705 50849
Epoch: 16. Sept. 2025 • Age: 10 hours

Aktueller Status

Höhe 486.3 km
Geschwindigkeit 7.63 km/s
Subsatellitenpunkt 37.54°N, 13.01°W
Startdatum 23. Okt. 2024
Alter 0.8 years
Typ internet

Technische Details

Klassifizierung Payload
Masse 730.00 kg
Trockenmasse 700.00 kg
Gesamtmasse 730.00 kg
Länge 0.30 m
Durchmesser 4.10 m
Spannweite 29.00 m
Form Box + pan
Hersteller SPXS
Bus-Typ Starlink V2M
Phasenstatus In Orbit
Besitzer/Staat SPXS/US

Große Konstellationen

Loading constellations...